RYR7011 LEMG-EPKT

Flight info

Callsign RYR7011
Flight time 3h 8m
Altitude 36000
Route RIXUR N851 RESTU/N0436F380 N851 ISTER DCT NIVDA DCT OMEDA DCT RAPUR DCT TORTU DCT ERTEV DCT OSBUL DCT IBUPU DCT ROKIB DCT MALUG/N0434F390 DCT NAVTI DCT OGDAS DCT BAVOK
Aircraft B738/M-SDE3FGIJ1LRWYZ/SB1

Departure

Time 2026-05-05 18:25
Airport Málaga-Costa del Sol Airport (LEMG)

Arrival

Time 2026-05-05 21:33
Airport Katowice Wojciech Korfanty International Airport (EPKT)
Time Latitude Longitude Altitude Speed Heading
2026-05-05 17:46 36.67683 -4.49508 41 ft 0 kts 42°
2026-05-05 18:17 36.67670 -4.49524 41 ft 3 kts 45°
2026-05-05 18:17 36.67655 -4.49544 40 ft 3 kts 57°
2026-05-05 18:17 36.67646 -4.49568 40 ft 3 kts 91°
2026-05-05 18:18 36.67652 -4.49588 41 ft 3 kts 125°
2026-05-05 18:18 36.67665 -4.49610 38 ft 3 kts 131°
2026-05-05 18:18 36.67667 -4.49613 41 ft 0 kts 131°
2026-05-05 18:20 36.67659 -4.49602 40 ft 4 kts 137°
2026-05-05 18:20 36.67612 -4.49619 40 ft 11 kts 219°
2026-05-05 18:21 36.67548 -4.49671 42 ft 9 kts 187°
2026-05-05 18:21 36.67498 -4.49625 41 ft 10 kts 131°
2026-05-05 18:21 36.67439 -4.49543 41 ft 16 kts 131°
2026-05-05 18:21 36.67347 -4.49413 42 ft 23 kts 131°
2026-05-05 18:22 36.67229 -4.49250 41 ft 27 kts 132°
2026-05-05 18:22 36.67103 -4.49072 41 ft 26 kts 132°
2026-05-05 18:22 36.66986 -4.48908 41 ft 25 kts 131°
2026-05-05 18:22 36.66863 -4.48735 35 ft 28 kts 131°
2026-05-05 18:23 36.66735 -4.48555 32 ft 25 kts 132°
2026-05-05 18:23 36.66676 -4.48489 33 ft 8 kts 156°
2026-05-05 18:23 36.66627 -4.48506 33 ft 8 kts 220°
2026-05-05 18:23 36.66587 -4.48549 37 ft 7 kts 220°
2026-05-05 18:24 36.66555 -4.48583 39 ft 4 kts 229°
2026-05-05 18:24 36.66562 -4.48610 39 ft 2 kts 309°
2026-05-05 18:24 36.66643 -4.48722 39 ft 53 kts 312°
2026-05-05 18:24 36.67076 -4.49330 47 ft 132 kts 311°
2026-05-05 18:25 36.67806 -4.50333 487 ft 163 kts 314°
2026-05-05 18:25 36.68298 -4.51036 1219 ft 161 kts 310°
2026-05-05 18:25 36.69328 -4.52563 2087 ft 189 kts 310°
2026-05-05 18:25 36.70201 -4.53890 2464 ft 203 kts 309°
2026-05-05 18:26 36.71096 -4.55272 3030 ft 207 kts 309°
2026-05-05 18:26 36.71999 -4.56669 3688 ft 208 kts 309°
2026-05-05 18:26 36.72912 -4.58041 4311 ft 209 kts 316°
2026-05-05 18:26 36.74186 -4.58865 4968 ft 209 kts 342°
2026-05-05 18:27 36.75599 -4.59363 5522 ft 214 kts 342°
2026-05-05 18:27 36.77053 -4.59893 6120 ft 217 kts 341°
2026-05-05 18:27 36.78540 -4.60435 6552 ft 228 kts 342°
2026-05-05 18:27 36.80072 -4.60989 7262 ft 226 kts 344°
2026-05-05 18:28 36.83122 -4.59860 7979 ft 262 kts 38°
2026-05-05 18:28 36.84526 -4.58320 8534 ft 271 kts 39°
2026-05-05 18:28 36.85935 -4.56742 9274 ft 274 kts 39°
2026-05-05 18:29 36.87331 -4.55077 9837 ft 287 kts 49°
2026-05-05 18:29 36.88236 -4.52741 10151 ft 308 kts 71°
2026-05-05 18:29 36.88885 -4.50080 10333 ft 333 kts 72°
2026-05-05 18:29 36.89550 -4.47240 10726 ft 347 kts 72°
2026-05-05 18:30 36.90245 -4.44322 11374 ft 352 kts 72°
2026-05-05 18:30 36.90975 -4.41340 12109 ft 356 kts 72°
2026-05-05 18:30 36.91716 -4.38377 12882 ft 358 kts 71°
2026-05-05 18:30 36.92463 -4.35444 13554 ft 364 kts 71°
2026-05-05 18:31 36.93242 -4.32416 14226 ft 368 kts 71°
2026-05-05 18:31 36.94033 -4.29356 14945 ft 371 kts 71°
2026-05-05 18:31 36.94844 -4.26225 15654 ft 376 kts 71°
2026-05-05 18:31 36.95653 -4.23105 16355 ft 380 kts 71°
2026-05-05 18:32 36.96473 -4.19940 17008 ft 385 kts 71°
2026-05-05 18:32 36.97302 -4.16734 17675 ft 390 kts 71°
2026-05-05 18:32 36.98140 -4.13494 18321 ft 394 kts 71°
2026-05-05 18:32 36.98987 -4.10214 18919 ft 398 kts 71°
2026-05-05 18:33 36.99838 -4.06910 19522 ft 401 kts 71°
2026-05-05 18:33 37.00697 -4.03573 20107 ft 405 kts 71°
2026-05-05 18:33 37.01564 -4.00200 20686 ft 409 kts 71°
2026-05-05 18:33 37.02427 -3.96840 21250 ft 412 kts 71°
2026-05-05 18:34 37.03307 -3.93409 21826 ft 416 kts 71°
2026-05-05 18:34 37.04193 -3.89948 22373 ft 420 kts 71°
2026-05-05 18:34 37.05090 -3.86443 22927 ft 424 kts 71°
2026-05-05 18:34 37.05998 -3.82887 23501 ft 427 kts 71°
2026-05-05 18:35 37.06909 -3.79312 23908 ft 432 kts 71°
2026-05-05 18:35 37.07816 -3.75752 24301 ft 436 kts 71°
2026-05-05 18:35 37.08742 -3.72109 24737 ft 440 kts 71°
2026-05-05 18:35 37.09674 -3.68439 25159 ft 443 kts 71°
2026-05-05 18:36 37.10613 -3.64746 25574 ft 447 kts 71°
2026-05-05 18:36 37.11747 -3.61105 25970 ft 450 kts 63°
2026-05-05 18:36 37.13129 -3.57576 26381 ft 452 kts 61°
2026-05-05 18:36 37.14575 -3.54064 26788 ft 456 kts 60°
2026-05-05 18:37 37.15565 -3.51671 27053 ft 458 kts 61°
2026-05-05 18:37 37.17026 -3.48097 27441 ft 462 kts 61°
2026-05-05 18:37 37.18477 -3.44487 27833 ft 465 kts 62°
2026-05-05 18:37 37.19924 -3.40835 28212 ft 470 kts 62°
2026-05-05 18:38 37.21374 -3.37150 28538 ft 474 kts 62°
2026-05-05 18:38 37.22838 -3.33422 28926 ft 476 kts 62°
2026-05-05 18:38 37.24289 -3.29726 29302 ft 479 kts 62°
2026-05-05 18:38 37.25787 -3.25911 29642 ft 483 kts 62°
2026-05-05 18:39 37.27275 -3.22118 29982 ft 486 kts 62°
2026-05-05 18:39 37.28753 -3.18344 30268 ft 489 kts 62°
2026-05-05 18:39 37.30254 -3.14505 30543 ft 492 kts 62°
2026-05-05 18:39 37.31784 -3.10587 30842 ft 494 kts 62°
2026-05-05 18:40 37.33280 -3.06753 31124 ft 496 kts 62°
2026-05-05 18:40 37.34817 -3.02806 31409 ft 498 kts 63°
2026-05-05 18:40 37.36339 -2.98894 31743 ft 498 kts 63°
2026-05-05 18:40 37.37857 -2.94987 32158 ft 497 kts 63°
2026-05-05 18:41 37.39369 -2.91090 32547 ft 496 kts 63°
2026-05-05 18:41 37.40880 -2.87193 32902 ft 496 kts 63°
2026-05-05 18:41 37.42396 -2.83279 33226 ft 497 kts 63°
2026-05-05 18:41 37.43909 -2.79366 33556 ft 497 kts 63°
2026-05-05 18:42 37.45417 -2.75460 33955 ft 496 kts 63°
2026-05-05 18:42 37.46922 -2.71559 34280 ft 495 kts 63°
2026-05-05 18:42 37.48423 -2.67662 34586 ft 494 kts 63°
2026-05-05 18:42 37.49923 -2.63763 34841 ft 495 kts 63°
2026-05-05 18:43 37.51423 -2.59859 35070 ft 496 kts 63°
2026-05-05 18:43 37.52925 -2.55944 35365 ft 495 kts 63°
2026-05-05 18:43 37.54418 -2.52049 35705 ft 493 kts 63°
2026-05-05 18:43 37.55907 -2.48157 35971 ft 493 kts 63°
2026-05-05 18:44 37.58908 -2.40303 35955 ft 499 kts 63°
2026-05-05 18:44 37.61904 -2.32439 35933 ft 492 kts 63°
2026-05-05 18:45 37.64854 -2.24684 35943 ft 490 kts 63°
2026-05-05 18:45 37.67798 -2.16930 35938 ft 490 kts 63°
2026-05-05 18:46 37.70723 -2.09207 35952 ft 491 kts 63°
2026-05-05 18:46 37.73663 -2.01422 35935 ft 492 kts 63°
2026-05-05 18:47 37.76641 -1.93518 35960 ft 499 kts 63°
2026-05-05 18:47 37.78133 -1.89552 36072 ft 501 kts 63°
2026-05-05 18:47 37.79628 -1.85569 36325 ft 501 kts 63°
2026-05-05 18:48 37.81115 -1.81600 36634 ft 499 kts 63°
2026-05-05 18:48 37.82599 -1.77637 36946 ft 497 kts 63°
2026-05-05 18:48 37.84080 -1.73677 37232 ft 496 kts 63°
2026-05-05 18:48 37.85554 -1.69729 37465 ft 496 kts 63°
2026-05-05 18:49 37.87026 -1.65782 37674 ft 496 kts 63°
2026-05-05 18:49 37.88498 -1.61833 37899 ft 496 kts 63°
2026-05-05 18:49 37.91449 -1.53898 37898 ft 500 kts 63°
2026-05-05 18:50 37.94401 -1.45934 37878 ft 496 kts 63°
2026-05-05 18:50 37.97318 -1.38040 37892 ft 493 kts 63°
2026-05-05 18:51 38.00211 -1.30192 37892 ft 490 kts 63°
2026-05-05 18:51 38.03093 -1.22356 37886 ft 489 kts 63°
2026-05-05 18:52 38.05960 -1.14538 37898 ft 489 kts 63°
2026-05-05 18:52 38.08823 -1.06712 37897 ft 490 kts 63°
2026-05-05 18:53 38.11690 -0.98854 37910 ft 491 kts 63°
2026-05-05 18:53 38.14565 -0.90954 37907 ft 494 kts 63°
2026-05-05 18:54 38.17445 -0.83017 37915 ft 496 kts 63°
2026-05-05 18:54 38.20334 -0.75035 37912 ft 498 kts 63°
2026-05-05 18:55 38.23231 -0.67011 37914 ft 500 kts 63°
2026-05-05 18:55 38.26134 -0.58949 37919 ft 501 kts 64°
2026-05-05 18:56 38.28916 -0.50800 37912 ft 503 kts 66°
2026-05-05 18:56 38.31493 -0.42521 37905 ft 503 kts 67°
2026-05-05 18:57 38.34090 -0.34275 37907 ft 502 kts 66°
2026-05-05 18:57 38.36719 -0.26049 37911 ft 501 kts 66°
2026-05-05 18:58 38.39439 -0.17896 37900 ft 499 kts 65°
2026-05-05 18:58 38.42164 -0.09767 37900 ft 498 kts 65°
2026-05-05 18:59 38.44861 -0.01635 37899 ft 497 kts 65°
2026-05-05 18:59 38.47499 0.06493 37889 ft 496 kts 66°
2026-05-05 19:00 38.50102 0.14639 37905 ft 495 kts 66°
2026-05-05 19:00 38.52717 0.22829 37892 ft 495 kts 66°
2026-05-05 19:01 38.55307 0.30943 37887 ft 496 kts 66°
2026-05-05 19:01 38.57904 0.39098 37885 ft 496 kts 66°
2026-05-05 19:02 38.60498 0.47270 37899 ft 496 kts 67°
2026-05-05 19:02 38.63090 0.55465 37895 ft 497 kts 67°
2026-05-05 19:03 38.65694 0.63721 37926 ft 497 kts 67°
2026-05-05 19:03 38.68278 0.71938 37905 ft 498 kts 67°
2026-05-05 19:04 38.70842 0.80113 37896 ft 498 kts 67°
2026-05-05 19:04 38.73417 0.88347 37900 ft 498 kts 67°
2026-05-05 19:05 38.75988 0.96594 37902 ft 498 kts 68°
2026-05-05 19:05 38.78552 1.04842 37891 ft 498 kts 68°
2026-05-05 19:06 38.81110 1.13098 37913 ft 498 kts 68°
2026-05-05 19:06 38.83662 1.21356 37916 ft 498 kts 68°
2026-05-05 19:07 38.85793 1.28273 37913 ft 498 kts 68°
2026-05-05 19:07 38.88740 1.37867 37956 ft 498 kts 68°
2026-05-05 19:08 38.91280 1.46161 37924 ft 499 kts 68°
2026-05-05 19:08 38.93789 1.54523 37895 ft 499 kts 69°
2026-05-05 19:09 38.96236 1.62865 37911 ft 499 kts 69°
2026-05-05 19:09 38.98673 1.71188 37909 ft 499 kts 69°
2026-05-05 19:10 39.01128 1.79576 37906 ft 499 kts 69°
2026-05-05 19:10 39.03572 1.87938 37897 ft 500 kts 69°
2026-05-05 19:11 39.06008 1.96298 37906 ft 499 kts 69°
2026-05-05 19:11 39.08424 2.04619 37900 ft 499 kts 69°
2026-05-05 19:12 39.10853 2.13009 37930 ft 499 kts 69°
2026-05-05 19:12 39.13271 2.21389 37908 ft 499 kts 70°
2026-05-05 19:13 39.15293 2.28418 37905 ft 499 kts 70°
2026-05-05 19:13 39.17695 2.36790 37907 ft 498 kts 70°
2026-05-05 19:14 39.20079 2.45130 37912 ft 497 kts 70°
2026-05-05 19:14 39.22467 2.53506 37907 ft 497 kts 70°
2026-05-05 19:15 39.24844 2.61868 37909 ft 496 kts 70°
2026-05-05 19:15 39.27214 2.70240 37895 ft 496 kts 70°
2026-05-05 19:16 39.29574 2.78598 37910 ft 495 kts 70°
2026-05-05 19:16 39.31927 2.86950 37956 ft 495 kts 70°
2026-05-05 19:17 39.34278 2.95324 37910 ft 496 kts 71°
2026-05-05 19:17 39.36626 3.03713 37904 ft 496 kts 71°
2026-05-05 19:18 39.38967 3.12108 37907 ft 497 kts 71°
2026-05-05 19:18 39.41306 3.20518 37911 ft 498 kts 71°
2026-05-05 19:19 39.43996 3.28757 37906 ft 497 kts 59°
2026-05-05 19:19 39.47564 3.36427 37906 ft 498 kts 57°
2026-05-05 19:20 39.51178 3.44076 37911 ft 498 kts 58°
2026-05-05 19:20 39.54745 3.51776 37900 ft 499 kts 58°
2026-05-05 19:21 39.58282 3.59512 37913 ft 499 kts 59°
2026-05-05 19:21 39.61813 3.67264 37904 ft 500 kts 59°
2026-05-05 19:22 39.65344 3.75028 37900 ft 500 kts 59°
2026-05-05 19:22 39.68874 3.82807 37896 ft 500 kts 59°
2026-05-05 19:23 39.72401 3.90597 37910 ft 500 kts 59°
2026-05-05 19:23 39.75921 3.98391 37910 ft 501 kts 59°
2026-05-05 19:24 39.79437 4.06197 37910 ft 501 kts 59°
2026-05-05 19:24 39.82955 4.14027 37916 ft 501 kts 59°
2026-05-05 19:25 39.86461 4.21848 37893 ft 501 kts 59°
2026-05-05 19:25 39.89976 4.29683 37913 ft 501 kts 59°
2026-05-05 19:26 39.93484 4.37510 37914 ft 500 kts 59°
2026-05-05 19:26 39.96991 4.45359 37911 ft 501 kts 59°
2026-05-05 19:27 40.00492 4.53218 37911 ft 501 kts 60°
2026-05-05 19:27 40.03992 4.61093 37893 ft 501 kts 59°
2026-05-05 19:28 40.07650 4.68814 37882 ft 500 kts 50°
2026-05-05 19:28 40.12062 4.75767 37904 ft 498 kts 47°
2026-05-05 19:29 40.16579 4.82643 37925 ft 499 kts 48°
2026-05-05 19:29 40.21057 4.89581 37914 ft 499 kts 49°
2026-05-05 19:30 40.25498 4.96572 37888 ft 500 kts 49°
2026-05-05 19:30 40.29929 5.03592 37909 ft 499 kts 49°
2026-05-05 19:31 40.34351 5.10610 37909 ft 499 kts 49°
2026-05-05 19:31 40.38772 5.17638 37910 ft 501 kts 49°
2026-05-05 19:32 40.43204 5.24695 37917 ft 501 kts 49°
2026-05-05 19:32 40.47629 5.31759 37907 ft 501 kts 49°
2026-05-05 19:33 40.52052 5.38834 37912 ft 500 kts 49°
2026-05-05 19:33 40.56464 5.45910 37901 ft 500 kts 49°
2026-05-05 19:34 40.60862 5.52980 37913 ft 500 kts 49°
2026-05-05 19:35 40.67457 5.63610 37921 ft 499 kts 49°
2026-05-05 19:35 40.71837 5.70691 37919 ft 498 kts 49°
2026-05-05 19:36 40.76207 5.77772 37915 ft 497 kts 49°
2026-05-05 19:36 40.80577 5.84868 37920 ft 497 kts 50°
2026-05-05 19:37 40.84931 5.91956 37907 ft 497 kts 50°
2026-05-05 19:37 40.89282 5.99055 37923 ft 497 kts 50°
2026-05-05 19:38 40.93625 6.06157 37916 ft 497 kts 50°
2026-05-05 19:38 40.97963 6.13269 37933 ft 497 kts 50°
2026-05-05 19:39 41.02304 6.20401 37915 ft 497 kts 50°
2026-05-05 19:39 41.06641 6.27543 37913 ft 497 kts 50°
2026-05-05 19:40 41.10970 6.34689 37920 ft 498 kts 50°
2026-05-05 19:40 41.15304 6.41861 37919 ft 498 kts 50°
2026-05-05 19:41 41.19636 6.49048 37908 ft 499 kts 50°
2026-05-05 19:41 41.23964 6.56241 37920 ft 499 kts 50°
2026-05-05 19:42 41.28319 6.63345 37925 ft 499 kts 49°
2026-05-05 19:42 41.32783 6.70482 37931 ft 498 kts 49°
2026-05-05 19:43 41.37209 6.77580 37965 ft 499 kts 49°
2026-05-05 19:43 41.41629 6.84714 37906 ft 499 kts 49°
2026-05-05 19:44 41.46037 6.91858 37933 ft 499 kts 49°
2026-05-05 19:44 41.50436 6.99008 37930 ft 498 kts 49°
2026-05-05 19:45 41.54836 7.06174 37942 ft 498 kts 49°
2026-05-05 19:45 41.59231 7.13346 37941 ft 499 kts 49°
2026-05-05 19:46 41.63613 7.20515 37939 ft 499 kts 49°
2026-05-05 19:46 41.67998 7.27707 37936 ft 499 kts 49°
2026-05-05 19:47 41.72380 7.34911 37938 ft 499 kts 50°
2026-05-05 19:47 41.76753 7.42116 37948 ft 499 kts 50°
2026-05-05 19:48 41.81129 7.49344 37943 ft 499 kts 50°
2026-05-05 19:48 41.85501 7.56584 37942 ft 500 kts 50°
2026-05-05 19:49 41.89862 7.63821 37941 ft 499 kts 50°
2026-05-05 19:49 41.94231 7.71091 37966 ft 499 kts 50°
2026-05-05 19:50 41.98590 7.78360 37948 ft 499 kts 50°
2026-05-05 19:50 42.02941 7.85634 37943 ft 500 kts 50°
2026-05-05 19:51 42.06563 7.91704 37946 ft 500 kts 50°
2026-05-05 19:51 42.10907 7.98999 37926 ft 499 kts 50°
2026-05-05 19:52 42.15248 8.06307 37947 ft 500 kts 50°
2026-05-05 19:52 42.19587 8.13629 37948 ft 500 kts 50°
2026-05-05 19:53 42.23921 8.20962 37943 ft 500 kts 50°
2026-05-05 19:53 42.28256 8.28312 37946 ft 500 kts 50°
2026-05-05 19:54 42.33015 8.35077 37930 ft 495 kts 34°
2026-05-05 19:54 42.38864 8.39723 37933 ft 483 kts 17°
2026-05-05 19:55 42.45104 8.43089 37938 ft 483 kts 15°
2026-05-05 19:55 42.51348 8.46451 37951 ft 483 kts 16°
2026-05-05 19:56 42.57586 8.49894 37956 ft 484 kts 17°
2026-05-05 19:56 42.63819 8.53375 37952 ft 485 kts 17°
2026-05-05 19:57 42.70052 8.56864 37965 ft 485 kts 17°
2026-05-05 19:57 42.76307 8.60369 37950 ft 486 kts 17°
2026-05-05 19:58 42.82568 8.63885 37943 ft 487 kts 17°
2026-05-05 19:58 42.88834 8.67410 37940 ft 487 kts 17°
2026-05-05 19:59 42.95111 8.70949 37950 ft 489 kts 17°
2026-05-05 19:59 43.01391 8.74499 37956 ft 489 kts 17°
2026-05-05 20:00 43.07674 8.78059 37947 ft 489 kts 17°
2026-05-05 20:00 43.13959 8.81628 37960 ft 489 kts 17°
2026-05-05 20:01 43.20276 8.85223 37955 ft 488 kts 17°
2026-05-05 20:01 43.26544 8.88799 37951 ft 488 kts 17°
2026-05-05 20:02 43.32802 8.92376 37963 ft 487 kts 17°
2026-05-05 20:02 43.39152 8.95388 37954 ft 476 kts
2026-05-05 20:03 43.45614 8.96000 37973 ft 461 kts 351°
2026-05-05 20:03 43.52047 8.95848 37961 ft 462 kts 352°
2026-05-05 20:04 43.58435 8.95822 37953 ft 463 kts 353°
2026-05-05 20:04 43.61713 8.96211 37946 ft 474 kts
2026-05-05 20:04 43.64838 8.97569 37967 ft 482 kts 19°
2026-05-05 20:04 43.67819 8.99905 37976 ft 491 kts 34°
2026-05-05 20:05 43.70475 9.02775 37974 ft 492 kts 36°
2026-05-05 20:05 43.75775 9.08796 37961 ft 494 kts 37°
2026-05-05 20:06 43.81134 9.14842 37956 ft 494 kts 35°
2026-05-05 20:06 43.86471 9.20764 37982 ft 495 kts 36°
2026-05-05 20:07 43.91840 9.26735 37963 ft 496 kts 36°
2026-05-05 20:07 43.97217 9.32749 37964 ft 496 kts 36°
2026-05-05 20:08 44.02584 9.38774 37966 ft 496 kts 36°
2026-05-05 20:08 44.07984 9.44852 37967 ft 496 kts 36°
2026-05-05 20:09 44.13333 9.50888 37966 ft 493 kts 36°
2026-05-05 20:09 44.18649 9.56899 37960 ft 491 kts 36°
2026-05-05 20:10 44.23903 9.62853 37978 ft 489 kts 36°
2026-05-05 20:10 44.29206 9.68878 37976 ft 487 kts 36°
2026-05-05 20:11 44.34441 9.74840 37954 ft 485 kts 36°
2026-05-05 20:11 44.39655 9.80792 37959 ft 483 kts 36°
2026-05-05 20:12 44.44801 9.86681 37987 ft 480 kts 36°
2026-05-05 20:12 44.49968 9.92605 37966 ft 480 kts 37°
2026-05-05 20:13 44.55127 9.98537 38006 ft 480 kts 36°
2026-05-05 20:13 44.60299 10.04496 38004 ft 483 kts 37°
2026-05-05 20:14 44.65495 10.10498 37984 ft 485 kts 37°
2026-05-05 20:14 44.70703 10.16530 37995 ft 486 kts 37°
2026-05-05 20:15 44.75927 10.22595 38015 ft 487 kts 37°
2026-05-05 20:15 44.81151 10.28673 37991 ft 488 kts 37°
2026-05-05 20:16 44.86393 10.34787 37987 ft 488 kts 37°
2026-05-05 20:16 44.91622 10.40899 38009 ft 487 kts 37°
2026-05-05 20:17 44.96835 10.47009 38007 ft 487 kts 37°
2026-05-05 20:17 45.02032 10.53116 38005 ft 485 kts 37°
2026-05-05 20:18 45.07216 10.59224 37985 ft 484 kts 37°
2026-05-05 20:18 45.12375 10.65316 37989 ft 482 kts 38°
2026-05-05 20:19 45.17516 10.71400 37985 ft 481 kts 38°
2026-05-05 20:19 45.22645 10.77484 37981 ft 480 kts 38°
2026-05-05 20:20 45.27758 10.83563 38013 ft 479 kts 38°
2026-05-05 20:20 45.32853 10.89637 37982 ft 477 kts 38°
2026-05-05 20:21 45.37932 10.95708 37982 ft 476 kts 38°
2026-05-05 20:21 45.42995 11.01774 37996 ft 475 kts 38°
2026-05-05 20:22 45.48039 11.07832 37999 ft 474 kts 38°
2026-05-05 20:22 45.53089 11.13911 37984 ft 474 kts 38°
2026-05-05 20:23 45.58119 11.19981 38004 ft 473 kts 38°
2026-05-05 20:23 45.63145 11.26062 38021 ft 473 kts 39°
2026-05-05 20:24 45.68127 11.32104 38017 ft 473 kts 39°
2026-05-05 20:24 45.73145 11.38204 38018 ft 473 kts 39°
2026-05-05 20:25 45.78159 11.44315 37992 ft 474 kts 39°
2026-05-05 20:25 45.83176 11.50444 38001 ft 475 kts 39°
2026-05-05 20:26 45.88202 11.56599 38018 ft 475 kts 39°
2026-05-05 20:26 45.93232 11.62775 38010 ft 476 kts 39°
2026-05-05 20:27 45.98267 11.68970 38011 ft 477 kts 39°
2026-05-05 20:27 46.03315 11.75196 38002 ft 478 kts 40°
2026-05-05 20:28 46.08356 11.81430 38007 ft 479 kts 40°
2026-05-05 20:28 46.13447 11.87744 38007 ft 480 kts 40°
2026-05-05 20:29 46.18506 11.94032 38006 ft 481 kts 40°
2026-05-05 20:29 46.23570 12.00343 37994 ft 481 kts 40°
2026-05-05 20:30 46.28624 12.06658 37979 ft 480 kts 40°
2026-05-05 20:30 46.33631 12.12929 38001 ft 478 kts 40°
2026-05-05 20:31 46.38644 12.19225 37994 ft 476 kts 40°
2026-05-05 20:31 46.43626 12.25497 38007 ft 475 kts 40°
2026-05-05 20:32 46.47811 12.30777 38003 ft 474 kts 40°
2026-05-05 20:32 46.52774 12.37055 38027 ft 473 kts 40°
2026-05-05 20:33 46.57726 12.43335 38038 ft 472 kts 40°
2026-05-05 20:33 46.62672 12.49621 38020 ft 472 kts 40°
2026-05-05 20:34 46.67611 12.55916 38020 ft 471 kts 40°
2026-05-05 20:34 46.72414 12.62404 38016 ft 470 kts 47°
2026-05-05 20:35 46.76757 12.69517 38001 ft 470 kts 49°
2026-05-05 20:35 46.81026 12.76729 37991 ft 468 kts 49°
2026-05-05 20:36 46.85330 12.83927 38028 ft 474 kts 49°
2026-05-05 20:36 46.87511 12.87547 38201 ft 475 kts 49°
2026-05-05 20:36 46.89697 12.91166 38507 ft 473 kts 49°
2026-05-05 20:36 46.91870 12.94765 38814 ft 470 kts 49°
2026-05-05 20:37 46.94036 12.98354 38963 ft 471 kts 49°
2026-05-05 20:37 46.98385 13.05579 38926 ft 473 kts 49°
2026-05-05 20:38 47.02722 13.12802 38943 ft 471 kts 49°
2026-05-05 20:38 47.07045 13.20024 38931 ft 471 kts 49°
2026-05-05 20:39 47.11364 13.27262 38930 ft 470 kts 49°
2026-05-05 20:39 47.15664 13.34486 38903 ft 470 kts 49°
2026-05-05 20:40 47.19954 13.41713 38896 ft 469 kts 49°
2026-05-05 20:40 47.24246 13.48962 38901 ft 469 kts 49°
2026-05-05 20:41 47.28529 13.56214 38884 ft 469 kts 49°
2026-05-05 20:41 47.32803 13.63471 38860 ft 468 kts 49°
2026-05-05 20:42 47.37053 13.70709 38879 ft 466 kts 49°
2026-05-05 20:42 47.41301 13.77961 38886 ft 467 kts 49°
2026-05-05 20:43 47.45544 13.85225 38881 ft 468 kts 49°
2026-05-05 20:43 47.49818 13.92560 38861 ft 468 kts 49°
2026-05-05 20:44 47.54061 13.99862 38862 ft 467 kts 50°
2026-05-05 20:44 47.58285 14.07153 38857 ft 466 kts 50°
2026-05-05 20:45 47.64594 14.18077 38869 ft 464 kts 50°
2026-05-05 20:45 47.68784 14.25358 38840 ft 463 kts 50°
2026-05-05 20:46 47.72959 14.32632 38856 ft 462 kts 50°
2026-05-05 20:46 47.77125 14.39910 38833 ft 462 kts 50°
2026-05-05 20:47 47.81282 14.47191 38838 ft 462 kts 50°
2026-05-05 20:47 47.85437 14.54490 38812 ft 462 kts 49°
2026-05-05 20:48 47.89583 14.61790 38822 ft 462 kts 49°
2026-05-05 20:48 47.93726 14.69107 38819 ft 462 kts 49°
2026-05-05 20:49 47.97876 14.76456 38803 ft 463 kts 49°
2026-05-05 20:49 48.02024 14.83822 38808 ft 464 kts 50°
2026-05-05 20:50 48.06173 14.91209 38800 ft 464 kts 50°
2026-05-05 20:50 48.10324 14.98621 38803 ft 465 kts 50°
2026-05-05 20:51 48.14479 15.06061 38785 ft 465 kts 50°
2026-05-05 20:51 48.18624 15.13504 38778 ft 466 kts 49°
2026-05-05 20:52 48.22768 15.20964 38783 ft 466 kts 49°
2026-05-05 20:52 48.26908 15.28438 38765 ft 466 kts 49°
2026-05-05 20:53 48.31044 15.35926 38766 ft 466 kts 49°
2026-05-05 20:53 48.35173 15.43423 38763 ft 465 kts 49°
2026-05-05 20:54 48.39292 15.50921 38747 ft 465 kts 49°
2026-05-05 20:54 48.43403 15.58428 38754 ft 465 kts 50°
2026-05-05 20:55 48.47518 15.65963 38761 ft 465 kts 49°
2026-05-05 20:55 48.51619 15.73492 38757 ft 465 kts 50°
2026-05-05 20:56 48.55716 15.81037 38749 ft 464 kts 49°
2026-05-05 20:56 48.59804 15.88585 38749 ft 464 kts 49°
2026-05-05 20:57 48.63882 15.96137 38760 ft 464 kts 49°
2026-05-05 20:57 48.67958 16.03706 38756 ft 464 kts 50°
2026-05-05 20:58 48.72025 16.11280 38762 ft 463 kts 50°
2026-05-05 20:58 48.76081 16.18853 38762 ft 463 kts 50°
2026-05-05 20:59 48.80153 16.26416 38765 ft 463 kts 49°
2026-05-05 20:59 48.84246 16.33947 38770 ft 462 kts 49°
2026-05-05 21:00 48.88331 16.41481 38775 ft 462 kts 49°
2026-05-05 21:00 48.90375 16.45265 38629 ft 465 kts 49°
2026-05-05 21:00 48.92438 16.49091 38096 ft 468 kts 50°
2026-05-05 21:01 48.94490 16.52904 37554 ft 465 kts 50°
2026-05-05 21:01 48.96531 16.56706 37079 ft 462 kts 50°
2026-05-05 21:01 48.98549 16.60468 36709 ft 456 kts 50°
2026-05-05 21:01 49.00548 16.64201 36311 ft 452 kts 50°
2026-05-05 21:02 49.02524 16.67897 35936 ft 448 kts 50°
2026-05-05 21:02 49.04484 16.71567 35552 ft 444 kts 50°
2026-05-05 21:02 49.06424 16.75204 35169 ft 441 kts 50°
2026-05-05 21:02 49.08348 16.78815 34783 ft 438 kts 51°
2026-05-05 21:03 49.10263 16.82415 34401 ft 435 kts 51°
2026-05-05 21:03 49.12160 16.85986 34018 ft 432 kts 51°
2026-05-05 21:03 49.14042 16.89533 33611 ft 429 kts 51°
2026-05-05 21:03 49.15922 16.93081 33180 ft 427 kts 51°
2026-05-05 21:04 49.17778 16.96589 32799 ft 424 kts 51°
2026-05-05 21:04 49.19601 17.00040 32419 ft 420 kts 51°
2026-05-05 21:04 49.21453 17.03550 32035 ft 417 kts 51°
2026-05-05 21:04 49.23271 17.07000 31665 ft 414 kts 51°
2026-05-05 21:05 49.25072 17.10420 31297 ft 412 kts 51°
2026-05-05 21:05 49.26862 17.13827 30944 ft 409 kts 50°
2026-05-05 21:05 49.28616 17.17167 30593 ft 406 kts 50°
2026-05-05 21:05 49.30378 17.20527 30240 ft 404 kts 50°
2026-05-05 21:06 49.32130 17.23873 29890 ft 401 kts 50°
2026-05-05 21:06 49.33895 17.27247 29475 ft 399 kts 50°
2026-05-05 21:06 49.35601 17.30514 29104 ft 396 kts 50°
2026-05-05 21:06 49.37314 17.33797 28734 ft 392 kts 50°
2026-05-05 21:07 49.39033 17.37097 28364 ft 389 kts 50°
2026-05-05 21:07 49.40713 17.40324 28000 ft 386 kts 51°
2026-05-05 21:07 49.42357 17.43488 27637 ft 383 kts 51°
2026-05-05 21:07 49.44034 17.46717 27277 ft 380 kts 51°
2026-05-05 21:08 49.45124 17.48819 27043 ft 379 kts 51°
2026-05-05 21:08 49.46762 17.51980 26697 ft 377 kts 51°
2026-05-05 21:08 49.48397 17.55139 26344 ft 377 kts 51°
2026-05-05 21:08 49.50024 17.58288 25994 ft 375 kts 51°
2026-05-05 21:09 49.52171 17.62448 25532 ft 374 kts 51°
2026-05-05 21:09 49.53266 17.64572 25304 ft 375 kts 51°
2026-05-05 21:09 49.54885 17.67714 24960 ft 375 kts 51°
2026-05-05 21:09 49.56503 17.70860 24606 ft 374 kts 51°
2026-05-05 21:10 49.58118 17.74004 24251 ft 373 kts 51°
2026-05-05 21:10 49.59725 17.77135 23902 ft 371 kts 52°
2026-05-05 21:10 49.61323 17.80253 23550 ft 370 kts 52°
2026-05-05 21:10 49.62915 17.83362 23173 ft 369 kts 52°
2026-05-05 21:11 49.64503 17.86467 22785 ft 367 kts 52°
2026-05-05 21:11 49.66077 17.89547 22424 ft 365 kts 52°
2026-05-05 21:11 49.67641 17.92613 22077 ft 363 kts 52°
2026-05-05 21:11 49.69254 17.95629 21718 ft 361 kts 45°
2026-05-05 21:12 49.71151 17.98131 21396 ft 358 kts 34°
2026-05-05 21:12 49.73300 18.00052 21049 ft 355 kts 25°
2026-05-05 21:12 49.75533 18.01668 20728 ft 353 kts 24°
2026-05-05 21:12 49.77764 18.03237 20394 ft 351 kts 24°
2026-05-05 21:13 49.79967 18.04790 20061 ft 350 kts 24°
2026-05-05 21:13 49.82178 18.06365 19737 ft 349 kts 24°
2026-05-05 21:13 49.84373 18.07942 19408 ft 347 kts 25°
2026-05-05 21:13 49.86559 18.09523 19077 ft 346 kts 25°
2026-05-05 21:14 49.88731 18.11100 18757 ft 345 kts 25°
2026-05-05 21:14 49.90889 18.12671 18444 ft 344 kts 25°
2026-05-05 21:14 49.93056 18.14251 18098 ft 342 kts 25°
2026-05-05 21:14 49.95209 18.15821 17731 ft 341 kts 25°
2026-05-05 21:15 49.97353 18.17386 17382 ft 340 kts 25°
2026-05-05 21:15 49.99471 18.18996 17042 ft 338 kts 32°
2026-05-05 21:15 50.01180 18.21391 16767 ft 331 kts 54°
2026-05-05 21:15 50.02511 18.24284 16464 ft 328 kts 57°
2026-05-05 21:16 50.03785 18.27219 16141 ft 327 kts 58°
2026-05-05 21:16 50.05047 18.30147 15816 ft 325 kts 58°
2026-05-05 21:16 50.06313 18.33064 15507 ft 324 kts 58°
2026-05-05 21:16 50.07581 18.35961 15190 ft 323 kts 57°
2026-05-05 21:17 50.08849 18.38844 14881 ft 322 kts 57°
2026-05-05 21:17 50.10111 18.41702 14576 ft 321 kts 57°
2026-05-05 21:17 50.11375 18.44568 14259 ft 320 kts 58°
2026-05-05 21:17 50.12632 18.47420 13949 ft 319 kts 58°
2026-05-05 21:18 50.13971 18.50242 13638 ft 319 kts 53°
2026-05-05 21:18 50.15396 18.52823 13330 ft 317 kts 51°
2026-05-05 21:18 50.16878 18.55420 13021 ft 315 kts 51°
2026-05-05 21:18 50.18317 18.57962 12715 ft 313 kts 51°
2026-05-05 21:19 50.19746 18.60523 12442 ft 310 kts 51°
2026-05-05 21:19 50.21148 18.63058 12161 ft 307 kts 51°
2026-05-05 21:19 50.22538 18.65581 11891 ft 305 kts 51°
2026-05-05 21:19 50.24001 18.67944 11645 ft 303 kts 42°
2026-05-05 21:20 50.25648 18.69974 11445 ft 302 kts 38°
2026-05-05 21:20 50.27341 18.71940 11236 ft 304 kts 38°
2026-05-05 21:20 50.29042 18.73926 11036 ft 306 kts 38°
2026-05-05 21:20 50.30743 18.75945 10828 ft 308 kts 39°
2026-05-05 21:21 50.32447 18.77997 10605 ft 310 kts 39°
2026-05-05 21:21 50.34152 18.80071 10398 ft 309 kts 39°
2026-05-05 21:21 50.35837 18.82127 10167 ft 305 kts 39°
2026-05-05 21:21 50.37487 18.84180 9947 ft 300 kts 44°
2026-05-05 21:22 50.38652 18.86804 9716 ft 290 kts 73°
2026-05-05 21:22 50.39049 18.89818 9528 ft 280 kts 90°
2026-05-05 21:22 50.39059 18.92858 9333 ft 279 kts 95°
2026-05-05 21:22 50.39007 18.95915 9130 ft 281 kts 95°
2026-05-05 21:23 50.38960 18.98986 8928 ft 282 kts 95°
2026-05-05 21:23 50.38921 19.02054 8726 ft 282 kts 95°
2026-05-05 21:23 50.38896 19.05111 8651 ft 278 kts 94°
2026-05-05 21:23 50.38875 19.08138 8472 ft 279 kts 94°
2026-05-05 21:24 50.38853 19.11179 8298 ft 279 kts 95°
2026-05-05 21:24 50.38834 19.14233 8096 ft 280 kts 95°
2026-05-05 21:24 50.38816 19.17288 7900 ft 281 kts 95°
2026-05-05 21:24 50.38796 19.20355 7705 ft 282 kts 95°
2026-05-05 21:25 50.38775 19.23427 7507 ft 280 kts 95°
2026-05-05 21:25 50.38756 19.26457 7155 ft 277 kts 95°
2026-05-05 21:25 50.38738 19.29483 6704 ft 278 kts 96°
2026-05-05 21:25 50.38721 19.32471 6560 ft 266 kts 96°
2026-05-05 21:26 50.38706 19.35296 6298 ft 255 kts 97°
2026-05-05 21:26 50.38709 19.38092 5705 ft 262 kts 90°
2026-05-05 21:26 50.39316 19.40755 5506 ft 259 kts 57°
2026-05-05 21:26 50.40634 19.42535 5376 ft 244 kts 22°
2026-05-05 21:27 50.42201 19.43172 5264 ft 224 kts 359°
2026-05-05 21:27 50.43717 19.43005 4949 ft 217 kts 346°
2026-05-05 21:27 50.45222 19.42698 4612 ft 217 kts 341°
2026-05-05 21:27 50.46497 19.41712 4320 ft 195 kts 304°
2026-05-05 21:28 50.47270 19.40080 4176 ft 180 kts 284°
2026-05-05 21:28 50.47483 19.38234 4075 ft 171 kts 266°
2026-05-05 21:28 50.47548 19.36394 3932 ft 165 kts 263°
2026-05-05 21:28 50.47571 19.34640 3794 ft 156 kts 262°
2026-05-05 21:29 50.47576 19.32924 3679 ft 159 kts 261°
2026-05-05 21:29 50.47578 19.31193 3618 ft 157 kts 261°
2026-05-05 21:29 50.47577 19.29474 3423 ft 157 kts 261°
2026-05-05 21:29 50.47578 19.27767 3221 ft 155 kts 261°
2026-05-05 21:30 50.47578 19.26081 3023 ft 154 kts 261°
2026-05-05 21:30 50.47579 19.24405 2812 ft 153 kts 261°
2026-05-05 21:30 50.47581 19.22790 2634 ft 144 kts 261°
2026-05-05 21:30 50.47582 19.21238 2447 ft 142 kts 261°
2026-05-05 21:31 50.47583 19.19707 2263 ft 139 kts 260°
2026-05-05 21:31 50.47583 19.18185 2074 ft 140 kts 261°
2026-05-05 21:31 50.47585 19.16631 1888 ft 144 kts 262°
2026-05-05 21:31 50.47586 19.15027 1681 ft 150 kts 263°
2026-05-05 21:32 50.47590 19.13339 1466 ft 160 kts 265°
2026-05-05 21:32 50.47590 19.11599 1228 ft 158 kts 268°
2026-05-05 21:32 50.47600 19.09933 1028 ft 150 kts 266°
2026-05-05 21:32 50.47596 19.08446 1000 ft 110 kts 270°
2026-05-05 21:33 50.47600 19.07562 1000 ft 58 kts 270°
2026-05-05 21:33 50.47574 19.07123 1001 ft 33 kts 251°
2026-05-05 21:33 50.47490 19.06869 1001 ft 15 kts 219°
2026-05-05 21:33 50.47434 19.06892 997 ft 7 kts 115°
2026-05-05 21:34 50.47427 19.06971 1000 ft 7 kts 91°
2026-05-05 21:34 50.47427 19.07049 999 ft 7 kts 89°
2026-05-05 21:34 50.47427 19.07138 998 ft 9 kts 90°
2026-05-05 21:34 50.47427 19.07242 998 ft 10 kts 90°
2026-05-05 21:35 50.47427 19.07359 998 ft 11 kts 90°
2026-05-05 21:35 50.47392 19.07445 998 ft 10 kts 178°
2026-05-05 21:35 50.47324 19.07442 1003 ft 10 kts 180°
2026-05-05 21:35 50.47260 19.07440 1003 ft 8 kts 193°
2026-05-05 21:36 50.47235 19.07370 1002 ft 8 kts 268°
2026-05-05 21:36 50.47235 19.07285 997 ft 8 kts 270°
2026-05-05 21:36 50.47232 19.07223 1003 ft 5 kts 249°
2026-05-05 21:36 50.47207 19.07211 997 ft 2 kts 175°
2026-05-05 21:37 50.47194 19.07212 1000 ft 2 kts 179°
2026-05-05 21:37 50.47184 19.07212 997 ft 0 kts 180°